Date,TemperatureHighF,TemperatureAvgF,TemperatureLowF,DewpointHighF,DewpointAvgF,DewpointLowF,HumidityHigh,HumidityAvg,HumidityLow,PressureMaxIn,PressureMinIn,WindSpeedMaxMPH,WindSpeedAvgMPH,GustSpeedMaxMPH,PrecipitationSumIn
2013-10-1,80.1,60.1,45.5,60.3,52.0,43.6,94,77,48,29.89,29.76,5,1,5,0.00
2013-10-2,82.2,65.2,52.5,62.3,55.9,50.3,92,74,48,29.88,29.78,12,2,12,0.00
2013-10-3,79.0,63.0,50.2,57.7,52.9,47.1,90,72,38,30.01,29.87,5,1,5,0.00
2013-10-4,78.8,64.8,55.4,65.0,58.6,52.8,92,81,62,29.92,29.84,7,1,7,0.00
2013-10-5,71.4,64.1,59.9,63.1,59.5,56.9,93,85,73,29.96,29.88,4,1,4,0.09
2013-10-6,63.0,60.5,58.6,60.9,58.4,56.8,94,93,89,29.96,29.88,4,1,4,1.05
2013-10-7,72.0,63.4,53.1,69.0,60.6,48.7,96,91,78,29.87,29.52,18,2,18,0.61
2013-10-8,69.4,55.1,45.5,52.2,45.3,41.6,95,73,39,30.19,29.81,8,2,8,0.01
2013-10-9,64.2,52.4,42.3,48.6,43.4,40.3,93,74,46,30.31,30.16,11,2,11,0.00
2013-10-10,60.6,54.5,45.0,47.6,43.0,38.5,88,66,49,30.15,29.96,8,2,8,0.00
2013-10-11,71.4,62.0,52.5,55.7,47.5,41.3,71,59,47,29.98,29.91,12,2,12,0.00
2013-10-12,76.1,60.5,45.5,53.9,48.4,41.9,88,66,44,30.17,29.95,12,3,12,0.00
2013-10-13,68.2,58.1,49.8,50.8,48.5,45.4,86,71,53,30.28,30.16,11,2,11,0.00
2013-10-14,69.3,57.4,47.5,51.8,48.8,44.1,89,74,53,30.21,30.08,8,1,8,0.00
2013-10-15,71.1,59.6,46.9,56.2,51.1,45.0,93,75,58,30.11,29.86,6,1,6,0.00
2013-10-16,62.1,58.3,50.0,54.0,51.7,45.7,86,79,73,29.93,29.75,5,1,5,1.77
2013-10-17,58.6,58.4,57.7,54.2,54.0,53.1,85,85,84,29.75,29.70,2,0,2,0.00
2013-10-18,68.7,58.8,43.5,48.8,43.0,38.3,82,57,36,30.11,29.92,13,3,13,0.17
2013-10-19,68.4,50.7,38.7,47.7,41.2,36.0,91,73,34,30.13,29.88,11,1,11,0.04
2013-10-20,62.8,50.8,41.2,47.0,39.6,34.5,90,68,37,30.17,29.87,15,2,15,0.02
2013-10-21,68.7,50.6,35.8,43.7,37.3,31.4,90,64,33,30.29,30.10,11,2,11,0.00
2013-10-22,61.7,49.6,40.5,50.5,41.9,36.0,87,75,49,30.10,29.87,9,2,9,0.00
2013-10-23,55.9,43.6,34.9,40.8,34.8,30.3,88,72,46,29.95,29.76,11,2,11,0.00
2013-10-24,43.5,35.3,33.3,34.2,29.2,27.6,81,78,69,30.02,29.86,4,1,5,0.00
2013-10-25,52.3,41.1,32.0,36.0,30.0,26.6,82,66,43,30.04,29.92,14,2,14,0.01
2013-10-26,55.4,42.7,29.3,35.4,28.8,24.3,86,62,32,30.02,29.70,16,2,16,0.00
2013-10-27,56.5,48.3,37.2,37.1,31.7,28.6,76,55,37,29.84,29.65,14,2,14,0.00
2013-10-28,62.2,48.2,30.2,36.7,33.2,25.4,84,59,34,30.20,29.96,14,3,14,0.00
2013-10-29,51.8,41.7,32.5,32.3,27.1,22.4,75,57,40,30.32,30.20,7,1,7,0.00
2013-10-30,54.1,42.9,32.4,43.1,34.6,25.3,85,73,57,30.21,29.92,4,1,4,0.00
2013-10-31,58.1,49.4,37.9,54.9,45.8,34.7,90,87,84,29.93,29.47,8,1,8,0.40